Time,TemperatureF,DewpointF,PressureIn,WindDirection,WindDirectionDegrees,WindSpeedMPH,WindSpeedGustMPH,Humidity,HourlyPrecipIn,Conditions,Clouds,dailyrainin,SoftwareType,DateUTC
2013-04-10 00:16:00,45.1,45.0,30.01,NE,37,0.0,-999.0,99,-99.99,,,0.00,weatherlink.com 1.10,2013-04-10 04:16:00,
2013-04-10 00:31:00,45.5,45.0,30.01,NW,315,0.0,-999.0,99,-99.99,,,0.00,weatherlink.com 1.10,2013-04-10 04:31:00,
2013-04-10 00:46:00,45.7,46.0,30.01,NE,44,3.0,-999.0,99,-99.99,,,0.01,weatherlink.com 1.10,2013-04-10 04:46:00,
2013-04-10 01:01:00,46.3,46.0,30.02,NE,42,0.0,-999.0,99,-99.99,,,0.01,weatherlink.com 1.10,2013-04-10 05:01:00,
2013-04-10 01:16:00,46.3,46.0,30.02,ENE,66,5.0,-999.0,98,-99.99,,,0.01,weatherlink.com 1.10,2013-04-10 05:16:00,
2013-04-10 01:46:00,45.4,45.0,30.03,ENE,60,0.0,-999.0,98,-99.99,,,0.01,weatherlink.com 1.10,2013-04-10 05:46:00,
2013-04-10 02:01:00,44.1,44.0,30.04,NE,38,2.0,-999.0,98,-99.99,,,0.01,weatherlink.com 1.10,2013-04-10 06:01:00,
2013-04-10 02:16:00,41.9,41.0,30.03,NE,38,3.0,-999.0,98,-99.99,,,0.01,weatherlink.com 1.10,2013-04-10 06:16:00,
2013-04-10 02:31:00,41.6,41.0,30.03,NE,42,2.0,-999.0,98,-99.99,,,0.01,weatherlink.com 1.10,2013-04-10 06:31:00,
2013-04-10 02:46:00,41.6,41.0,30.03,NE,36,5.0,-999.0,98,-99.99,,,0.01,weatherlink.com 1.10,2013-04-10 06:46:00,
2013-04-10 03:16:00,42.2,42.0,30.03,NE,34,0.0,-999.0,99,-99.99,,,0.01,weatherlink.com 1.10,2013-04-10 07:16:00,
2013-04-10 03:31:00,42.3,42.0,30.03,NE,34,0.0,-999.0,99,-99.99,,,0.01,weatherlink.com 1.10,2013-04-10 07:31:00,
2013-04-10 03:46:00,42.6,42.0,30.02,NE,38,0.0,-999.0,99,-99.99,,,0.01,weatherlink.com 1.10,2013-04-10 07:46:00,
2013-04-10 04:01:00,42.4,42.0,30.03,NE,38,0.0,-999.0,99,-99.99,,,0.01,weatherlink.com 1.10,2013-04-10 08:01:00,
2013-04-10 04:16:00,42.3,42.0,30.05,NE,38,0.0,-999.0,99,-99.99,,,0.01,weatherlink.com 1.10,2013-04-10 08:16:00,
2013-04-10 04:31:00,42.0,42.0,30.04,NE,36,4.0,-999.0,99,-99.99,,,0.01,weatherlink.com 1.10,2013-04-10 08:31:00,
2013-04-10 04:46:00,42.0,42.0,30.04,NE,34,0.0,-999.0,99,-99.99,,,0.01,weatherlink.com 1.10,2013-04-10 08:46:00,
2013-04-10 05:01:00,42.1,42.0,30.05,NNE,33,3.0,-999.0,99,-99.99,,,0.01,weatherlink.com 1.10,2013-04-10 09:01:00,
2013-04-10 05:16:00,42.4,42.0,30.04,NE,44,4.0,-999.0,99,-99.99,,,0.02,weatherlink.com 1.10,2013-04-10 09:16:00,
2013-04-10 05:31:00,42.3,42.0,30.03,NE,37,0.0,-999.0,99,-99.99,,,0.02,weatherlink.com 1.10,2013-04-10 09:31:00,
2013-04-10 05:46:00,42.4,42.0,30.03,SE,138,0.0,-999.0,99,-99.99,,,0.02,weatherlink.com 1.10,2013-04-10 09:46:00,
2013-04-10 06:01:00,42.6,42.0,30.03,ENE,67,0.0,-999.0,99,-99.99,,,0.02,weatherlink.com 1.10,2013-04-10 10:01:00,
2013-04-10 06:16:00,42.7,43.0,30.05,NE,53,0.0,-999.0,99,-99.99,,,0.02,weatherlink.com 1.10,2013-04-10 10:16:00,
2013-04-10 06:31:00,42.6,42.0,30.05,SSE,154,0.0,-999.0,99,-99.99,,,0.02,weatherlink.com 1.10,2013-04-10 10:31:00,
2013-04-10 07:01:00,43.2,43.0,30.05,ESE,107,5.0,-999.0,99,-99.99,,,0.02,weatherlink.com 1.10,2013-04-10 11:01:00,
2013-04-10 07:16:00,43.3,43.0,30.05,SE,138,2.0,-999.0,99,-99.99,,,0.02,weatherlink.com 1.10,2013-04-10 11:16:00,
2013-04-10 07:46:00,44.0,44.0,30.05,ESE,113,0.0,-999.0,99,-99.99,,,0.02,weatherlink.com 1.10,2013-04-10 11:46:00,
2013-04-10 08:01:00,43.5,43.0,30.07,NNE,31,3.0,-999.0,99,-99.99,,,0.02,weatherlink.com 1.10,2013-04-10 12:01:00,
2013-04-10 08:17:00,42.1,42.0,30.07,NE,34,3.0,-999.0,99,-99.99,,,0.02,weatherlink.com 1.10,2013-04-10 12:17:00,
2013-04-10 08:47:00,41.3,41.0,30.08,ENE,61,7.0,-999.0,99,-99.99,,,0.02,weatherlink.com 1.10,2013-04-10 12:47:00,
2013-04-10 09:02:00,40.9,41.0,30.07,NNE,22,3.0,-999.0,99,-99.99,,,0.02,weatherlink.com 1.10,2013-04-10 13:02:00,
2013-04-10 09:17:00,41.6,41.0,30.07,ENE,63,0.0,-999.0,99,-99.99,,,0.02,weatherlink.com 1.10,2013-04-10 13:17:00,
2013-04-10 09:32:00,42.3,42.0,30.07,NNE,31,0.0,-999.0,99,-99.99,,,0.02,weatherlink.com 1.10,2013-04-10 13:32:00,
2013-04-10 09:47:00,42.5,42.0,30.06,ENE,59,3.0,-999.0,99,-99.99,,,0.02,weatherlink.com 1.10,2013-04-10 13:47:00,
2013-04-10 10:02:00,42.4,42.0,30.06,NE,56,4.0,-999.0,99,-99.99,,,0.02,weatherlink.com 1.10,2013-04-10 14:02:00,
2013-04-10 10:17:00,42.5,42.0,30.09,NE,47,0.0,-999.0,99,-99.99,,,0.02,weatherlink.com 1.10,2013-04-10 14:17:00,
2013-04-10 10:32:00,42.2,42.0,30.08,North,355,2.0,-999.0,99,-99.99,,,0.02,weatherlink.com 1.10,2013-04-10 14:32:00,
2013-04-10 10:47:00,41.1,41.0,30.08,NNE,15,11.0,-999.0,98,-99.99,,,0.02,weatherlink.com 1.10,2013-04-10 14:47:00,
2013-04-10 11:02:00,40.7,40.0,30.06,NE,55,3.0,-999.0,98,-99.99,,,0.03,weatherlink.com 1.10,2013-04-10 15:02:00,
2013-04-10 11:17:00,40.9,41.0,30.09,NE,42,8.0,-999.0,99,-99.99,,,0.03,weatherlink.com 1.10,2013-04-10 15:17:00,
2013-04-10 11:32:00,40.9,41.0,30.04,NE,39,4.0,-999.0,99,-99.99,,,0.03,weatherlink.com 1.10,2013-04-10 15:32:00,
2013-04-10 11:47:00,41.3,41.0,30.04,ENE,78,0.0,-999.0,98,-99.99,,,0.03,weatherlink.com 1.10,2013-04-10 15:47:00,
2013-04-10 12:02:00,41.8,42.0,30.03,North,360,0.0,-999.0,99,-99.99,,,0.03,weatherlink.com 1.10,2013-04-10 16:02:00,
2013-04-10 12:17:00,42.9,43.0,30.03,ESE,120,0.0,-999.0,99,-99.99,,,0.03,weatherlink.com 1.10,2013-04-10 16:17:00,
2013-04-10 12:32:00,42.7,42.0,30.04,ENE,63,3.0,-999.0,98,-99.99,,,0.03,weatherlink.com 1.10,2013-04-10 16:32:00,
2013-04-10 12:47:00,42.4,42.0,30.03,NE,41,7.0,-999.0,97,-99.99,,,0.03,weatherlink.com 1.10,2013-04-10 16:47:00,
2013-04-10 13:02:00,41.7,41.0,30.00,ENE,67,2.0,-999.0,97,-99.99,,,0.03,weatherlink.com 1.10,2013-04-10 17:02:00,
2013-04-10 13:17:00,42.0,41.0,30.00,East,90,0.0,-999.0,97,-99.99,,,0.03,weatherlink.com 1.10,2013-04-10 17:17:00,
2013-04-10 13:32:00,42.3,42.0,30.00,North,349,1.0,-999.0,97,-99.99,,,0.03,weatherlink.com 1.10,2013-04-10 17:32:00,
2013-04-10 13:47:00,42.2,41.0,30.01,NE,34,0.0,-999.0,96,-99.99,,,0.03,weatherlink.com 1.10,2013-04-10 17:47:00,
2013-04-10 14:02:00,41.8,41.0,30.00,NNE,32,5.0,-999.0,96,-99.99,,,0.03,weatherlink.com 1.10,2013-04-10 18:02:00,
2013-04-10 14:17:00,40.8,40.0,30.04,NNE,24,9.0,-999.0,95,-99.99,,,0.03,weatherlink.com 1.10,2013-04-10 18:17:00,
2013-04-10 14:32:00,40.6,40.0,29.98,NNW,329,3.0,-999.0,96,-99.99,,,0.03,weatherlink.com 1.10,2013-04-10 18:32:00,
2013-04-10 14:47:00,40.7,40.0,29.98,SW,221,2.0,-999.0,97,-99.99,,,0.03,weatherlink.com 1.10,2013-04-10 18:47:00,
2013-04-10 15:02:00,40.7,40.0,29.98,NNE,19,4.0,-999.0,97,-99.99,,,0.03,weatherlink.com 1.10,2013-04-10 19:02:00,
2013-04-10 15:17:00,39.9,39.0,29.99,North,355,20.0,-999.0,97,-99.99,,,0.03,weatherlink.com 1.10,2013-04-10 19:17:00,
2013-04-10 15:32:00,39.1,38.0,30.03,NNE,17,4.0,-999.0,97,-99.99,,,0.03,weatherlink.com 1.10,2013-04-10 19:32:00,
2013-04-10 15:47:00,39.4,39.0,30.00,NNE,17,1.0,-999.0,98,-99.99,,,0.03,weatherlink.com 1.10,2013-04-10 19:47:00,
2013-04-10 16:02:00,39.7,39.0,29.91,ENE,69,3.0,-999.0,98,-99.99,,,0.03,weatherlink.com 1.10,2013-04-10 20:02:00,
2013-04-10 16:17:00,40.9,40.0,29.96,ESE,122,0.0,-999.0,98,-99.99,,,0.03,weatherlink.com 1.10,2013-04-10 20:17:00,
2013-04-10 16:32:00,41.0,41.0,29.96,NE,37,5.0,-999.0,98,-99.99,,,0.03,weatherlink.com 1.10,2013-04-10 20:32:00,
2013-04-10 16:47:00,41.1,41.0,29.98,East,84,4.0,-999.0,98,-99.99,,,0.03,weatherlink.com 1.10,2013-04-10 20:47:00,
2013-04-10 17:02:00,41.1,41.0,30.00,NW,313,5.0,-999.0,98,-99.99,,,0.03,weatherlink.com 1.10,2013-04-10 21:02:00,
2013-04-10 17:17:00,41.3,41.0,30.00,NE,40,5.0,-999.0,98,-99.99,,,0.03,weatherlink.com 1.10,2013-04-10 21:17:00,
2013-04-10 17:32:00,40.5,40.0,30.00,NE,34,4.0,-999.0,97,-99.99,,,0.03,weatherlink.com 1.10,2013-04-10 21:32:00,
2013-04-10 17:47:00,40.3,40.0,30.02,North,10,5.0,-999.0,97,-99.99,,,0.03,weatherlink.com 1.10,2013-04-10 21:47:00,
2013-04-10 18:02:00,40.3,40.0,30.04,NNE,33,6.0,-999.0,97,-99.99,,,0.03,weatherlink.com 1.10,2013-04-10 22:02:00,
2013-04-10 18:17:00,40.2,40.0,30.05,NNE,30,5.0,-999.0,98,-99.99,,,0.03,weatherlink.com 1.10,2013-04-10 22:17:00,
2013-04-10 18:32:00,40.3,40.0,30.04,NE,37,4.0,-999.0,98,-99.99,,,0.03,weatherlink.com 1.10,2013-04-10 22:32:00,
2013-04-10 18:47:00,40.4,40.0,30.03,NE,34,4.0,-999.0,98,-99.99,,,0.03,weatherlink.com 1.10,2013-04-10 22:47:00,
2013-04-10 19:02:00,40.3,40.0,30.03,NNE,30,8.0,-999.0,98,-99.99,,,0.03,weatherlink.com 1.10,2013-04-10 23:02:00,
2013-04-10 19:17:00,40.1,40.0,30.04,NNE,14,4.0,-999.0,98,-99.99,,,0.03,weatherlink.com 1.10,2013-04-10 23:17:00,
2013-04-10 19:32:00,39.9,39.0,30.03,NNE,26,5.0,-999.0,98,-99.99,,,0.03,weatherlink.com 1.10,2013-04-10 23:32:00,
2013-04-10 19:47:00,40.0,40.0,30.03,NE,51,2.0,-999.0,98,-99.99,,,0.03,weatherlink.com 1.10,2013-04-10 23:47:00,
2013-04-10 20:02:00,39.9,39.0,30.02,NE,49,3.0,-999.0,98,-99.99,,,0.03,weatherlink.com 1.10,2013-04-11 00:02:00,
2013-04-10 20:17:00,39.9,39.0,30.03,NNE,26,2.0,-999.0,97,-99.99,,,0.03,weatherlink.com 1.10,2013-04-11 00:17:00,
2013-04-10 20:32:00,40.0,39.0,30.05,NE,54,1.0,-999.0,97,-99.99,,,0.03,weatherlink.com 1.10,2013-04-11 00:32:00,
2013-04-10 20:47:00,40.1,39.0,30.06,NE,46,3.0,-999.0,97,-99.99,,,0.03,weatherlink.com 1.10,2013-04-11 00:47:00,
2013-04-10 21:02:00,40.2,39.0,30.08,NNE,30,3.0,-999.0,96,-99.99,,,0.03,weatherlink.com 1.10,2013-04-11 01:02:00,
2013-04-10 21:17:00,40.2,39.0,30.09,NE,36,0.0,-999.0,96,-99.99,,,0.03,weatherlink.com 1.10,2013-04-11 01:17:00,
2013-04-10 21:32:00,40.1,39.0,30.08,NE,34,0.0,-999.0,96,-99.99,,,0.03,weatherlink.com 1.10,2013-04-11 01:32:00,
2013-04-10 21:47:00,39.8,39.0,30.07,NE,44,3.0,-999.0,96,-99.99,,,0.03,weatherlink.com 1.10,2013-04-11 01:47:00,
2013-04-10 22:02:00,39.6,39.0,30.06,NE,46,0.0,-999.0,96,-99.99,,,0.03,weatherlink.com 1.10,2013-04-11 02:02:00,
2013-04-10 22:17:00,39.6,39.0,30.07,ENE,57,0.0,-999.0,96,-99.99,,,0.03,weatherlink.com 1.10,2013-04-11 02:17:00,
2013-04-10 22:32:00,39.8,39.0,30.08,NE,42,0.0,-999.0,96,-99.99,,,0.03,weatherlink.com 1.10,2013-04-11 02:32:00,
2013-04-10 22:47:00,40.0,39.0,30.09,SE,132,1.0,-999.0,96,-99.99,,,0.03,weatherlink.com 1.10,2013-04-11 02:47:00,
2013-04-10 23:02:00,40.1,39.0,30.10,SE,126,5.0,-999.0,96,-99.99,,,0.03,weatherlink.com 1.10,2013-04-11 03:02:00,
2013-04-10 23:18:00,39.9,39.0,30.08,SE,140,4.0,-999.0,95,-99.99,,,0.03,weatherlink.com 1.10,2013-04-11 03:18:00,
2013-04-10 23:32:00,40.1,39.0,30.07,SE,128,1.0,-999.0,94,-99.99,,,0.03,weatherlink.com 1.10,2013-04-11 03:32:00,
2013-04-10 23:48:00,40.4,38.0,30.06,SE,126,0.0,-999.0,92,-99.99,,,0.03,weatherlink.com 1.10,2013-04-11 03:48:00,